KUIPER-00543

导读

KUIPER-00543(NORAD编号69612)是亚马逊柯伊伯(Kuiper)低轨互联网星座的组网卫星,隶属于美国亚马逊公司主导的全球宽带星座项目。该卫星搭载相控阵天线与星间激光链路,具备高带宽、低延迟通信能力,运行于低地球轨道,主要任务是为全球网络服务不足的偏远、乡村及海上区域提供高速互联网接入,同时面向企业、政府提供通信支持,配套亚马逊AWS云服务可实现弹性通信基础设施能力,是柯伊伯星座推进全球数字化连接部署的组成部分。

基本信息
目录编号:
69612
目录名称:
KUIPER-00543
国际标识:
2026-140W
轨道中心:
EARTH
卫星名称:
KUIPER-00543
卫星全名:
KUIPER-00543
卫星状态:
在轨 (已飞行70 天)
发射日期:
2026-06-17 UTC
国别 :
美国 (US)
星等 :
--
轨道信息
数据来源 国际轨道数据
星历时间: 2026-08-26T05:44:09+0800
12小时前
查看轨道信息
半长轴: 6833.087km
偏心率: 0.0007689
轨道倾角: 51.879°
近地点辐角 174.718°
升交点赤经 61.995°
平近点角 185.389°
近地点: 449.696km
远地点: 460.204km
周期: 93.688分钟
每日圈数: 15.370123
详细信息
使用方式:
暂无
2D轨道图
3D轨道图
轨道高度分析图
轨道倾角分析图
轨道综合分析图
查看轨道综合分析图